Location: Albuquerque Trailhead
(34.7934°N, 106.3736°W)
Time: 19:34:47
(UTC+00:00)

NOAA 19 - Pass Details

Date: 03 April 2023
Orbit: 840 x 859 km, 99.1° (Epoch: 31 May)

Event Time Altitude Azimuth Distance (km) Brightness Sun altitude
Exits shadow 04:24:55 - 230° (SW) 2,565 7.8 -34.4°
Reaches altitude 10° 04:25:23 10° 234° (SW) 2,464 7.7 -34.5°
Maximum altitude 04:28:20 15° 267° (W) 2,146 7.7 -35.0°
Drops below altitude 10° 04:31:18 10° 300° (WNW) 2,466 8.4 -35.5°
Sets 04:34:50 0° 324° (NW) 3,404 9.3 -36.0°
